usabit.com alexa rank chart, usabit.com alexa rank daily changes

usabit.com alexa rank chart, usabit.com alexa rank daily changes

usabit.com
Actual rank:
47 062

RANK HISTORY

Date Rank Diff
2018/02/21 47 062 +22 179
2018/02/20 24 883 -5 328
2018/02/19 30 211 -19 488
2018/02/18 49 699 +5 057
2018/02/17 44 642 +4 515
2018/02/16 40 127 -1 648
2018/02/15 41 775 -6 401
2018/02/14 48 176 +10 848
2018/02/13 37 328 +11 565
2018/02/12 25 763 -14 237
2018/02/11 40 000 +2 392
2018/02/10 37 608 +8 533
2018/02/09 29 075 -19 237
2018/02/08 48 312 +12 898
2018/02/07 35 414 -2 932
2018/02/06 38 346 +14 382
2018/02/05 23 964 -20 079
2018/02/04 44 043 -2 922
2018/02/03 46 965 -8 165
2018/02/02 55 130 +10 552
2018/02/01 44 578 +7 400
2018/01/31 37 178 -1 182
2018/01/30 38 360 +67
2018/01/29 38 293 +132
2018/01/28 38 161 +496
2018/01/27 37 665 +366
2018/01/26 37 299 +415
2018/01/25 36 884 +281
2018/01/24 36 603 +44
2018/01/23 36 559 -683
2018/01/22 37 242 -326
2018/01/21 37 568 -416
2018/01/20 37 984 +493
2018/01/19 37 491 +107
2018/01/18 37 384 -251
2018/01/17 37 635 +7
2018/01/16 37 628 -116
2018/01/15 37 744 -182
2018/01/14 37 926 +323
2018/01/13 37 603 +28
2018/01/12 37 575 +823
2018/01/11 36 752 +81
2018/01/10 36 671 +204
2018/01/09 36 467 +255
2018/01/08 36 212 -18
2018/01/07 36 230 +529
2018/01/06 35 701 +214
2018/01/05 35 487 -206
2018/01/04 35 693 -175
2018/01/03 35 868 +417
2018/01/02 35 451 -343
2018/01/01 35 794 -249
2017/12/31 36 043 +306
2017/12/30 35 737 -219
2017/12/29 35 956 +110
2017/12/28 35 846 +201
2017/12/27 35 645 +531
2017/12/26 35 114 -65
2017/12/25 35 179 +16
2017/12/24 35 163 +10
2017/12/23 35 153

WIDGET FOR YOUR SITE

DOMAINS WITH THE NEAREST RANK

Domain Rank
sitebuilder.com 47 057
econlib.org 47 058
farmaciasahumada.cl 47 059
disgustingmen.com 47 060
diamondsupplyco.com 47 061
usabit.com 47 062
phish.net 47 063
convert-my-image.com 47 064
moe.st 47 065
yugiohtopdecks.com 47 066
besttemplates.com 47 067

DOMAINS WITH THE NEAREST RANK BY TLD .com

Domain Rank
depressingsubs.com 47 053
teknoseyir.com 47 056
sitebuilder.com 47 057
disgustingmen.com 47 060
diamondsupplyco.com 47 061
usabit.com 47 062
convert-my-image.com 47 064
yugiohtopdecks.com 47 066
besttemplates.com 47 067
mollie.com 47 068
gercekhaberci.com 47 075